CAPE
0 0 0 0 0 0 0 0 0 0 0 0 0 0 0 2 22 0 50 205 22 0 202 770 1144 920 732 437 288 110 0 0 0 0 0 120 158 91 37 20 11 0 0 0 0 0 0 0 0
0 0 0 0 0 0 0 0 3 0 0 0 0 0 0 0 0 0 0 302 13 0 28 330 1019 929 644 433 355 254 32 4 18 52 32 80 85 27 0 0 0 0 0 0 0 0 0 0 0
0 0 0 0 0 0 0 0 2 10 0 0 0 0 0 0 0 0 6 249 233 0 0 82 733 1018 719 536 488 474 217 96 87 169 166 172 85 3 0 0 0 0 0 0 0 0 0 0 0
0 0 0 0 0 0 0 0 0 32 1 0 0 0 0 0 0 0 7 182 309 31 11 113 439 957 853 638 661 698 483 421 308 340 364 339 263 33 8 11 0 0 0 0 0 0 0 0 0
0 0 0 0 0 0 0 0 0 4 7 0 0 0 0 0 0 0 28 49 308 223 69 91 247 845 1172 634 707 843 674 652 522 487 520 493 281 81 37 23 0 0 0 0 0 0 0 0 0
0 0 0 0 0 0 0 0 0 0 2 5 0 0 0 0 0 0 0 42 63 325 215 91 128 640 1216 1111 801 945 904 846 738 691 645 578 395 240 92 52 0 0 0 0 0 0 0 0 0
0 0 0 0 0 0 0 0 0 0 0 0 0 0 0 0 0 0 0 45 68 314 367 153 74 413 1048 1437 920 936 978 983 1007 903 808 694 591 381 174 79 6 0 0 0 0 0 0 0 0
0 0 0 0 0 0 0 0 0 6 10 0 0 0 0 0 0 0 0 0 376 579 571 177 70 164 761 1184 1249 940 951 1016 956 979 998 844 602 423 208 88 20 0 0 0 0 0 0 0 0
0 0 0 0 0 0 0 0 0 0 0 0 0 0 0 0 0 0 0 0 574 884 636 412 125 67 265 755 1265 1064 996 1015 1027 969 913 791 440 263 127 60 2 0 0 0 0 0 0 0 0
0 0 0 0 0 0 0 0 0 0 0 0 0 0 0 0 0 0 0 0 20 1164 1118 472 214 68 95 348 668 902 905 850 685 714 635 333 153 98 43 26 0 0 0 0 0 0 0 0 0
0 0 0 0 0 0 0 0 0 0 0 0 0 0 0 0 0 0 0 0 0 5 598 630 348 160 134 323 529 332 371 277 307 270 192 106 46 27 164 169 217 168 162 133 104 13 0 0 0
0 0 0 0 0 0 0 0 0 0 0 0 0 0 0 0 0 0 0 0 0 33 499 471 448 291 178 412 504 302 163 108 124 175 180 77 13 5 67 216 239 250 193 228 206 140 43 11 24
0 0 0 0 0 0 0 0 0 0 0 1 3 0 0 0 0 0 0 0 0 0 271 792 642 521 649 627 818 468 310 246 125 141 258 315 177 91 216 186 343 306 351 549 417 245 165 128 146
0 0 0 0 0 0 0 0 0 0 0 0 0 1 0 0 0 0 0 0 0 10 107 223 969 977 879 1029 1227 1113 975 372 338 308 240 342 558 523 248 643 550 723 762 810 661 360 279 255 217
0 0 0 0 0 0 0 0 0 0 0 0 0 0 0 0 0 0 0 0 0 0 20 192 486 493 394 776 1317 1119 734 975 602 536 511 516 437 773 1051 569 724 483 386 268 280 404 424 427 325
0 0 0 0 0 0 0 0 0 0 0 0 0 0 0 0 0 0 0 0 0 0 0 0 322 232 282 573 742 909 895 632 559 557 882 830 882 693 728 1138 942 583 313 296 154 64 32 73 82
0 0 0 0 0 0 0 0 0 0 0 0 0 0 0 0 0 0 0 0 0 0 0 0 98 286 426 372 487 343 607 802 621 430 340 1002 1169 1235 1042 879 980 701 612 375 228 153 84 78 37
0 0 0 0 0 0 0 0 0 0 0 0 0 0 0 0 0 0 0 0 0 0 0 0 106 573 357 318 312 566 649 367 481 526 279 232 842 1433 1083 904 916 725 532 399 178 119 140 125 47
0 0 0 0 0 0 0 0 0 0 0 0 0 0 0 0 0 0 0 0 0 0 0 0 31 606 487 355 172 0 2 916 890 777 853 564 421 739 1246 920 680 730 816 443 217 155 155 141 152
0 0 0 0 0 0 0 0 0 0 0 0 0 0 0 0 0 0 0 0 0 0 0 0 30 146 427 400 313 227 19 30 841 891 1206 1068 795 574 421 549 547 535 357 404 369 308 155 134 266
0 0 0 0 0 0 0 0 0 0 0 0 0 0 0 0 0 0 0 0 0 0 0 0 0 20 1 21 15 23 52 26 29 265 272 940 1148 756 626 560 399 412 510 370 240 245 157 30 213
0 0 0 0 0 0 0 0 0 0 0 0 0 0 0 0 0 0 0 0 0 0 0 0 0 0 0 3 1 0 3 7 0 0 0 0 0 237 986 542 514 455 472 419 295 256 196 309 142
0 0 0 0 0 0 0 0 0 0 0 0 0 0 0 0 0 0 0 0 0 0 0 0 0 0 0 0 0 0 0 4 59 1 0 0 1 144 1242 824 655 766 645 548 550 427 397 678 529
0 0 0 0 0 0 0 0 0 0 0 0 0 0 0 0 0 0 0 0 0 0 0 0 0 0 0 0 0 0 0 0 0 0 2 3 3 4 0 251 1065 808 952 840 731 749 866 1047 1205
0 0 0 0 0 0 0 0 0 0 0 0 0 0 0 0 0 0 0 0 0 0 0 0 0 0 0 0 0 0 0 0 0 0 0 0 0 0 0 42 18 46 302 1013 1174 924 954 1093 1113
0 0 0 0 0 0 0 0 0 0 15 0 0 0 0 0 0 0 0 0 0 0 0 0 0 0 0 0 0 0 0 0 0 0 8 4 0 0 0 0 80 123 418 955 1299 1570 1478 1401 1376
0 0 1 1 0 0 0 0 0 9 19 4 0 0 0 0 0 0 0 0 0 0 0 0 0 0 0 9 9 0 0 0 0 0 0 0 17 68 98 44 9 0 44 405 1430 1257 1628 1932 1633
0 0 0 1 1 0 0 0 0 2 16 70 0 0 0 0 0 0 0 0 0 0 0 2 3 0 0 4 0 0 0 0 0 0 0 0 0 4 7 2 5 4 3 98 267 938 941 1207 1583
0 1 0 1 1 12 0 0 30 44 1 0 5 0 0 0 0 0 0 0 0 0 0 0 4 1 2 10 4 0 0 0 0 0 0 0 0 0 7 22 15 0 0 0 24 630 584 275 765
0 2 0 1 0 0 0 0 0 23 9 0 0 0 0 0 0 0 0 0 0 0 0 0 0 15 13 17 15 9 1 0 0 0 0 0 0 0 0 4 33 22 7 0 0 4 1345 1286 1795
CIN
-0 -0 -0 -0 -0 -0 -0 -0 -0 -0 -0 -0 -0 -0 -0 -143 -197 -0 -165 -291 -489 -0 -558 -448 -374 -360 -369 -408 -445 -466 -0 -0 -0 -0 -0 -278 -246 -274 -318 -288 -122 -0 -0 -0 -0 -0 -0 -0 -0
-0 -0 -0 -0 -0 -0 -0 -0 -81 -0 -0 -0 -0 -0 -0 -0 -0 -0 -0 -330 -162 -0 -627 -517 -412 -388 -401 -421 -419 -430 -481 -208 -434 -386 -395 -313 -287 -320 -0 -0 -0 -0 -0 -0 -0 -0 -0 -0 -0
-0 -0 -0 -0 -0 -0 -0 -0 -23 -49 -0 -0 -0 -0 -0 -0 -0 -0 -161 -301 -410 -0 -144 -582 -442 -401 -387 -390 -385 -369 -403 -406 -383 -311 -285 -264 -284 -58 -0 -0 -0 -0 -0 -0 -0 -0 -0 -0 -0
-0 -0 -0 -0 -0 -0 -0 -0 -0 -33 -23 -0 -0 -0 -0 -0 -0 -0 -201 -251 -348 -549 -609 -569 -481 -383 -371 -345 -316 -305 -310 -291 -300 -262 -237 -226 -221 -299 -332 -214 -0 -0 -0 -0 -0 -0 -0 -0 -0
-0 -0 -0 -0 -0 -0 -0 -0 -0 -21 -43 -0 -0 -0 -0 -0 -0 -0 -124 -170 -364 -437 -548 -598 -512 -392 -309 -360 -323 -287 -283 -230 -231 -220 -198 -205 -241 -288 -310 -312 -0 -0 -0 -0 -0 -0 -0 -0 -0
-0 -0 -0 -0 -0 -0 -0 -0 -0 -0 -49 -21 -0 -0 -0 -0 -0 -0 -0 -144 -120 -389 -477 -594 -560 -425 -307 -284 -298 -270 -257 -224 -214 -182 -175 -187 -222 -245 -283 -304 -0 -0 -0 -0 -0 -0 -0 -0 -0
-0 -0 -0 -0 -0 -0 -0 -0 -3 -4 -0 -0 -0 -0 -0 -0 -0 -0 -0 -103 -108 -304 -403 -563 -575 -481 -347 -236 -289 -278 -253 -225 -171 -164 -164 -176 -182 -221 -264 -314 -186 -0 -0 -0 -0 -0 -0 -0 -0
-0 -0 -0 -0 -0 -0 -0 -0 -0 -11 -17 -0 -0 -0 -0 -0 -0 -0 -0 -0 -115 -184 -346 -456 -572 -527 -392 -287 -246 -266 -255 -245 -226 -192 -166 -171 -193 -221 -271 -332 -406 -0 -0 -0 -0 -0 -0 -0 -0
-0 -0 -0 -0 -0 -0 -0 -0 -0 -0 -0 -0 -0 -0 -0 -0 -0 -0 -0 -0 -115 -153 -289 -377 -461 -531 -449 -330 -209 -253 -239 -235 -231 -220 -214 -212 -254 -289 -328 -374 -143 -0 -0 -0 -0 -0 -0 -0 -0
-0 -0 -0 -0 -0 -0 -0 -0 -0 -0 -0 -0 -0 -0 -0 -0 -0 -0 -0 -0 -11 -77 -138 -295 -363 -487 -463 -365 -318 -263 -283 -268 -291 -280 -280 -317 -354 -370 -412 -371 -0 -0 -0 -0 -0 -0 -0 -0 -0
-0 -0 -0 -0 -0 -0 -0 -0 -0 -0 -0 -0 -0 -0 -0 -0 -0 -0 -0 -0 -0 -25 -71 -132 -265 -348 -396 -325 -313 -379 -375 -404 -392 -399 -417 -440 -478 -472 -331 -317 -301 -332 -345 -399 -428 -415 -0 -0 -0
-0 -0 -0 -0 -0 -0 -0 -0 -0 -0 -0 -3 -0 -5 -2 -0 -0 -0 -0 -0 -0 -125 -102 -182 -175 -247 -309 -271 -273 -281 -347 -418 -444 -445 -423 -466 -523 -521 -387 -313 -299 -303 -332 -341 -378 -409 -457 -481 -524
-0 -0 -0 -0 -0 -0 -0 -0 -0 -0 -0 -33 -19 -0 -0 -0 -0 -0 -0 -0 -9 -0 -116 -85 -133 -151 -166 -173 -158 -241 -283 -299 -369 -367 -363 -336 -354 -377 -293 -297 -293 -293 -304 -271 -319 -367 -405 -463 -462
-0 -0 -0 -0 -0 -0 -0 -0 -0 -0 -0 -0 -10 -12 -0 -0 -0 -0 -0 -0 -0 -125 -90 -90 -39 -44 -61 -68 -57 -102 -164 -205 -252 -241 -294 -283 -244 -234 -270 -202 -236 -239 -233 -240 -269 -288 -336 -409 -405
-0 -0 -0 -0 -0 -0 -0 -0 -0 -0 -0 -0 -0 -0 -0 -0 -0 -0 -0 -0 -0 -0 -109 -100 -61 -57 -58 -44 -69 -64 -55 -115 -156 -190 -204 -206 -226 -195 -167 -211 -183 -183 -206 -259 -295 -277 -299 -304 -329
-0 -0 -0 -0 -0 -0 -0 -0 -0 -0 -0 -0 -0 -0 -0 -0 -0 -0 -0 -0 -0 -0 -0 -0 -94 -103 -124 -85 -93 -117 -85 -77 -86 -112 -149 -162 -176 -172 -161 -147 -173 -194 -216 -222 -237 -273 -294 -369 -361
-0 -0 -0 -0 -0 -0 -0 -0 -0 -0 -0 -0 -0 -0 -0 -0 -0 -0 -0 -0 -0 -0 -0 -0 -96 -87 -92 -93 -115 -67 -106 -78 -82 -102 -142 -127 -123 -121 -136 -147 -152 -186 -205 -244 -253 -271 -300 -320 -338
-0 -0 -0 -0 -0 -0 -0 -0 -0 -0 -0 -0 -0 -0 -0 -0 -0 -0 -0 -0 -0 -0 -0 -0 -145 -89 -91 -90 -100 -86 -77 -80 -69 -94 -93 -150 -102 -58 -110 -153 -144 -170 -216 -246 -285 -296 -320 -341 -322
-0 -0 -0 -0 -0 -0 -0 -0 -0 -0 -0 -0 -0 -0 -0 -0 -0 -0 -0 -0 -0 -0 -0 -0 -193 -102 -98 -80 -76 -1 -153 -32 -47 -78 -73 -72 -108 -119 -86 -135 -138 -166 -197 -250 -289 -301 -321 -325 -317
-0 -0 -0 -0 -0 -0 -0 -0 -0 -0 -0 -0 -0 -0 -0 -0 -0 -0 -0 -0 -0 -0 -0 -0 -253 -158 -91 -92 -102 -119 -116 -130 -26 -46 -23 -39 -76 -105 -143 -159 -140 -158 -244 -262 -254 -271 -323 -343 -291
-0 -0 -0 -0 -0 -0 -0 -0 -0 -0 -0 -0 -0 -0 -0 -0 -0 -0 -0 -0 -0 -0 -0 -0 -0 -226 -31 -92 -164 -156 -144 -151 -135 -22 -50 -40 -27 -44 -54 -136 -158 -151 -203 -251 -295 -275 -315 -330 -310
-0 -0 -0 -0 -0 -0 -0 -0 -0 -0 -0 -0 -0 -0 -0 -0 -0 -0 -0 -0 -0 -0 -0 -0 -0 -0 -0 -71 -144 -0 -29 -92 -0 -0 -0 -0 -0 -51 -33 -96 -131 -113 -155 -192 -244 -273 -285 -274 -259
-0 -0 -0 -0 -0 -0 -0 -0 -0 -0 -0 -0 -0 -0 -0 -0 -0 -0 -0 -0 -0 -0 -0 -0 -0 -0 -0 -0 -0 -108 -0 -253 -204 -16 -0 -0 -54 -108 -39 -43 -95 -92 -111 -145 -169 -203 -209 -166 -206
-0 -0 -0 -0 -0 -0 -0 -0 -0 -0 -0 -0 -0 -0 -0 -0 -0 -54 -38 -0 -0 -0 -0 -0 -0 -0 -0 -0 -0 -0 -0 -0 -0 -0 -126 -103 -59 -55 -49 -77 -56 -113 -104 -107 -121 -122 -119 -136 -190
-0 -0 -0 -0 -0 -0 -0 -4 -0 -0 -14 -4 -0 -0 -0 -0 -0 -0 -0 -0 -0 -0 -0 -0 -0 -0 -0 -0 -0 -0 -0 -0 -0 -0 -0 -0 -0 -0 -0 -156 -131 -104 -102 -101 -96 -73 -83 -124 -137
-0 -0 -2 -0 -0 -0 -0 -0 -0 -25 -82 -21 -0 -0 -0 -0 -0 -0 -0 -0 -0 -0 -0 -0 -0 -0 -0 -0 -0 -0 -25 -0 -0 -0 -184 -140 -0 -0 -0 -0 -100 -91 -82 -97 -46 -32 -41 -77 -126
-0 -15 -11 -27 -0 -0 -0 -0 -0 -111 -59 -66 -0 -0 -0 -0 -0 -0 -0 -0 -0 -0 -0 -0 -0 -0 -0 -47 -36 -0 -0 -0 -0 -0 -0 -0 -171 -121 -133 -144 -148 -22 -137 -89 -49 -75 -72 -55 -95
-0 -0 -0 -58 -77 -0 -0 -0 -0 -64 -83 -54 -0 -0 -0 -0 -0 -0 -0 -0 -0 -0 -0 -30 -68 -0 -0 -44 -0 -0 -0 -0 -0 -0 -0 -0 -0 -184 -194 -125 -121 -115 -110 -160 -112 -58 -106 -68 -41
-0 -18 -24 -22 -18 -21 -0 -0 -57 -71 -75 -36 -84 -0 -0 -0 -0 -0 -0 -0 -0 -0 -0 -0 -47 -40 -48 -53 -56 -0 -0 -0 -0 -0 -0 -0 -0 -0 -163 -188 -231 -0 -0 -0 -35 -49 -92 -134 -109
-0 -78 -0 -47 -1 -0 -0 -0 -0 -61 -74 -0 -0 -65 -0 -0 -0 -0 -0 -0 -0 -0 -0 -0 -0 -55 -56 -56 -58 -52 -6 -0 -0 -0 -0 -0 -0 -0 -0 -21 -117 -150 -166 -0 -0 -3 -41 -7 -29
Wind_Speed
27 29 27 21 20 20 25 24 24 29 24 18 17 15 11 14 12 13 10 11 9 9 12 12 13 15 17 18 21 23 23 23 23 24 25 25 25 25 25 26 26 27 27 27 26 25 24 24 23
26 26 21 20 22 26 27 34 20 23 23 20 18 16 11 12 10 12 13 9 9 9 10 10 12 14 16 18 19 21 22 23 23 23 24 25 24 24 24 25 25 26 26 25 25 23 23 22 22
26 22 23 20 22 26 26 31 30 26 27 24 19 19 15 10 13 14 14 7 8 6 9 9 9 12 14 15 17 19 18 20 21 22 22 23 23 23 22 23 23 24 24 24 23 22 21 21 20
23 22 23 25 29 29 29 31 29 24 26 24 20 17 14 12 15 14 14 8 4 3 4 7 8 8 11 13 13 14 13 15 17 18 20 21 21 21 21 21 21 22 22 22 21 21 19 19 19
22 22 27 28 30 34 32 29 31 26 28 23 25 17 13 13 15 17 15 16 7 3 2 6 8 7 7 12 13 13 13 12 13 14 16 18 18 19 19 19 19 21 21 20 20 19 18 17 17
22 20 28 31 34 35 35 27 24 33 34 27 21 18 10 14 17 19 22 19 15 9 5 5 9 7 6 8 11 12 12 12 12 12 14 15 15 15 17 17 17 18 18 18 18 17 16 16 15
22 26 31 33 33 36 35 29 28 24 29 31 21 24 14 17 19 22 22 19 15 7 9 5 8 9 8 7 9 12 10 10 8 9 10 11 12 12 13 14 14 15 16 16 15 15 14 13 13
21 25 33 33 34 37 36 33 23 22 28 24 27 28 24 14 16 23 21 21 10 5 11 7 7 11 10 8 8 9 9 9 9 8 7 7 8 9 9 10 11 11 13 13 13 13 12 12 11
27 32 35 33 34 34 34 35 27 19 25 24 26 23 26 15 17 18 22 23 13 6 11 10 7 12 13 11 9 8 8 7 6 6 6 5 4 6 7 7 8 8 10 10 11 11 10 10 9
23 33 34 31 35 37 37 36 34 22 26 30 26 32 31 32 18 17 19 23 16 10 12 15 10 11 15 15 12 12 9 9 7 5 4 3 2 2 3 5 5 6 7 8 8 9 8 8 7
22 32 33 35 35 36 39 39 35 32 28 24 26 27 27 26 21 17 16 19 22 13 13 17 15 11 17 18 15 15 14 13 12 8 6 4 2 1 1 3 5 5 6 8 8 7 8 8 7
27 29 30 33 37 40 39 38 38 34 29 17 19 17 18 25 22 20 15 18 20 19 14 13 15 12 13 19 19 17 17 18 18 14 10 8 6 4 3 2 2 3 4 6 6 7 7 8 7
30 32 32 34 35 36 38 41 39 42 33 24 12 16 20 20 21 20 15 16 18 16 15 13 16 14 11 16 20 21 20 19 19 20 16 13 11 8 8 6 4 3 5 4 4 5 5 5 5
29 35 35 34 32 30 33 37 37 45 38 32 23 19 17 20 21 21 18 17 16 16 19 13 13 16 17 15 18 17 24 21 20 19 17 16 15 13 12 12 8 6 5 5 4 2 1 4 6
32 36 36 35 34 36 33 43 42 38 37 43 37 27 24 23 23 23 21 20 19 19 21 21 18 19 22 22 24 24 19 21 26 24 18 17 17 16 15 15 14 12 13 13 12 1 2 3 5
33 32 36 33 34 37 29 44 37 37 34 39 41 44 40 28 24 22 20 19 25 19 20 26 23 19 19 20 25 26 27 23 27 23 23 24 20 19 17 17 16 15 16 16 17 14 6 8 3
26 33 33 35 25 27 26 37 35 29 29 32 33 34 34 31 23 20 18 18 22 19 21 25 29 28 25 22 20 22 30 30 34 32 28 25 27 24 21 21 21 19 19 17 18 18 16 17 3
28 29 32 34 31 33 34 37 28 21 28 35 34 32 26 22 18 18 19 19 17 17 19 25 28 29 30 31 30 26 28 32 33 40 37 31 29 29 26 24 25 24 24 23 20 19 20 11 9
26 35 36 38 37 37 38 37 34 26 26 30 33 33 33 28 21 16 18 17 17 19 21 22 25 29 30 32 33 34 32 33 28 32 34 36 33 30 29 28 27 27 24 25 22 21 22 22 16
25 30 35 39 38 37 39 41 38 34 30 31 35 40 39 35 30 20 18 16 16 16 16 20 22 27 28 27 30 32 33 33 35 30 34 29 32 32 32 30 27 27 28 25 23 21 23 27 21
19 27 31 25 33 34 36 43 44 40 38 39 41 38 39 37 31 22 21 19 17 16 17 17 20 21 27 29 29 30 28 30 31 35 31 32 32 32 34 32 29 26 25 27 26 24 29 28 25
19 26 29 30 33 33 32 42 45 42 47 49 47 45 34 33 31 22 19 19 16 15 14 15 18 22 24 25 25 31 36 40 40 36 40 40 40 42 36 32 30 31 27 28 26 26 30 24 28
18 22 27 29 29 37 35 35 33 40 41 42 45 42 36 23 27 23 18 15 13 13 15 16 18 21 23 26 27 28 30 35 35 37 37 41 42 40 37 37 35 33 31 31 29 29 27 28 25
32 26 23 24 28 29 26 29 24 36 33 36 41 45 30 13 8 5 7 9 13 14 18 20 21 24 26 27 27 31 31 32 37 38 40 39 43 40 37 41 35 38 37 37 35 35 29 26 26
20 25 28 29 28 30 29 27 23 31 31 34 33 33 9 9 8 8 7 7 11 16 17 19 19 23 24 26 29 31 31 30 31 35 38 40 44 47 45 41 41 39 40 39 37 36 32 30 25
19 18 24 31 31 33 31 27 31 24 22 28 27 18 16 11 8 9 8 10 12 16 18 17 15 20 20 22 26 28 28 30 30 30 29 36 38 40 40 44 42 40 38 40 39 42 41 34 27
27 26 23 30 30 30 28 28 35 20 28 24 26 22 16 13 15 14 12 12 12 14 14 14 18 19 21 21 21 25 29 30 33 32 30 30 33 35 39 41 40 41 43 41 39 46 45 39 29
28 30 28 25 32 33 25 29 26 32 30 26 23 26 17 11 13 15 13 9 11 14 15 13 17 19 21 22 23 26 26 29 31 34 34 32 34 38 42 43 43 40 40 42 44 43 41 33 30
31 32 32 29 30 32 35 28 23 23 24 26 22 23 23 24 18 15 15 16 14 14 16 17 15 18 19 20 22 24 24 27 30 34 34 33 35 37 39 40 43 45 44 42 43 43 42 40 25
30 27 26 29 30 31 31 28 33 24 22 25 30 31 32 30 32 28 28 18 18 14 13 17 20 18 17 18 21 22 24 25 27 31 34 36 36 34 36 38 39 42 42 44 48 49 47 45 25
Wind_Direction
299 297 292 294 286 282 271 269 265 294 291 305 294 315 345 337 314 311 344 17 58 73 90 95 96 96 97 97 101 102 99 95 92 91 91 91 89 87 86 85 88 92 92 92 87 88 88 87 87
306 304 297 289 280 273 270 250 277 301 308 305 289 297 339 331 345 352 341 19 63 85 95 105 108 107 106 105 107 106 105 101 99 96 96 97 94 92 89 89 90 92 93 92 89 95 94 90 90
301 305 290 286 278 273 276 259 270 294 297 304 293 287 310 311 340 322 340 5 59 80 105 120 119 116 114 112 112 110 105 103 102 99 99 99 98 94 88 88 88 94 92 86 83 92 91 89 87
299 296 285 278 273 274 275 271 274 288 292 301 299 300 315 318 315 323 334 355 0 101 103 134 137 129 122 119 116 112 105 101 100 99 100 100 97 92 89 87 85 92 91 87 89 91 90 85 83
293 288 277 275 275 274 273 272 269 270 288 296 307 304 300 325 326 326 322 332 290 225 168 141 153 150 139 131 127 123 116 105 100 99 100 100 98 96 94 90 86 98 99 98 92 90 87 85 80
284 285 276 274 273 272 275 279 272 261 270 284 295 330 320 329 325 318 322 306 313 248 193 157 165 175 171 149 138 133 126 117 108 103 102 101 97 93 94 90 86 92 96 95 93 89 90 84 84
279 276 273 274 275 274 274 288 270 260 258 268 290 292 306 323 331 324 329 311 318 244 222 185 181 189 190 183 156 145 140 132 118 110 104 100 97 90 88 89 81 88 89 82 93 94 94 92 86
281 280 273 274 274 276 274 282 300 261 264 271 284 281 282 321 342 337 331 327 336 277 231 223 208 204 211 203 187 169 159 150 139 127 113 102 95 88 82 77 71 72 81 80 92 97 93 90 89
276 272 272 274 276 278 276 282 296 282 275 280 278 287 282 307 328 330 320 326 347 306 243 240 234 218 221 222 224 202 197 176 165 150 134 117 94 89 83 70 55 62 79 83 92 101 105 93 90
275 272 273 280 277 276 278 284 292 282 274 272 274 276 275 277 308 317 311 317 326 312 269 251 238 227 223 231 231 236 223 229 224 211 184 160 125 60 59 73 80 76 86 91 99 103 122 109 103
280 275 279 279 279 281 282 283 289 291 291 270 271 275 276 283 288 297 295 314 309 327 286 254 248 239 230 231 232 240 244 242 244 234 229 227 229 243 353 16 23 46 71 59 90 111 119 119 110
281 281 281 282 279 279 280 286 284 286 299 291 283 281 285 279 286 291 294 292 304 304 310 255 252 248 237 236 235 241 246 248 251 248 244 246 249 254 272 312 5 47 43 49 88 102 103 115 97
285 285 284 282 283 282 282 282 282 278 288 310 290 279 283 287 282 295 297 290 295 292 310 272 253 250 248 242 246 245 252 253 251 252 251 252 260 261 278 293 305 332 357 19 58 124 102 91 73
295 290 289 289 289 293 288 288 284 276 280 286 298 285 276 282 282 284 288 283 284 286 274 290 258 255 254 251 246 258 252 254 254 252 249 248 259 264 271 285 287 309 325 343 357 128 104 35 163
299 293 291 288 290 289 295 283 277 284 282 276 281 284 286 278 278 275 277 275 277 276 268 265 263 264 265 265 260 256 261 260 253 255 251 250 254 262 271 276 285 291 304 310 324 62 73 65 123
297 296 292 294 293 289 289 279 282 282 282 277 277 278 280 282 269 271 282 275 281 270 262 259 261 262 268 275 266 264 262 258 256 261 260 254 253 259 267 275 281 290 300 305 310 319 197 358 53
300 293 294 294 299 294 290 282 282 282 282 282 282 284 278 282 263 265 273 279 279 271 262 260 262 258 261 264 274 273 260 257 255 260 262 263 257 257 265 272 279 285 292 296 304 312 321 327 356
301 298 296 296 303 303 303 299 289 279 284 284 286 286 289 284 266 265 273 280 274 270 270 264 264 264 258 264 265 273 274 260 265 258 261 261 262 259 264 271 277 281 285 289 296 304 307 329 339
305 298 299 297 303 302 295 296 295 302 291 288 285 285 289 280 273 264 268 274 271 276 270 271 265 267 266 263 263 260 259 265 262 264 264 259 260 261 263 269 275 278 283 284 290 295 299 305 325
315 311 305 301 302 300 294 291 294 294 294 294 288 284 283 284 276 263 259 262 266 264 269 271 274 269 266 269 268 269 261 255 267 259 261 267 264 261 263 267 274 275 278 280 285 290 296 293 309
316 313 313 314 307 301 300 292 290 291 293 292 290 287 283 274 276 258 253 254 258 262 267 270 271 276 276 272 272 270 271 261 255 259 261 264 266 266 265 265 271 274 277 279 281 284 284 294 302
317 317 312 313 312 308 310 303 294 294 290 289 287 286 285 274 266 259 249 255 257 264 273 280 280 276 276 280 275 270 265 262 267 262 265 266 265 265 268 267 266 269 277 278 285 286 282 288 300
306 312 309 311 311 309 307 305 299 300 296 294 290 287 284 272 266 261 245 239 253 265 275 285 285 282 278 276 277 276 276 273 275 270 264 262 261 266 267 265 261 267 273 276 282 284 285 282 298
309 311 306 303 306 299 305 306 291 305 305 304 299 290 284 258 249 235 217 232 254 263 277 282 281 283 282 279 278 276 279 282 277 272 268 265 264 266 270 266 265 267 273 273 274 277 280 282 288
299 307 299 297 294 288 306 303 292 310 311 313 309 311 242 227 226 228 225 234 257 268 276 280 279 283 287 282 279 278 279 281 282 278 273 270 269 267 266 270 270 267 268 269 272 274 273 279 278
306 287 296 295 297 298 303 294 303 312 314 311 308 301 287 268 263 255 240 255 262 273 278 278 270 283 288 289 284 281 281 282 281 283 283 276 277 273 274 267 266 268 272 271 269 270 272 274 278
320 311 305 302 303 300 297 303 306 301 307 304 292 287 294 280 276 290 292 267 273 277 276 267 275 280 285 286 288 284 283 282 281 282 285 284 279 277 270 269 269 269 266 267 271 270 272 271 277
307 311 307 301 300 296 297 301 303 312 307 317 301 292 275 297 292 293 297 291 284 289 292 273 276 278 280 281 285 287 284 283 286 282 283 287 283 278 273 271 272 275 275 270 271 271 270 267 267
315 309 305 308 304 294 302 304 311 320 310 304 302 291 297 297 305 297 284 281 286 284 284 288 279 278 278 280 284 281 282 286 286 284 282 284 284 281 279 276 273 269 270 269 269 269 264 259 265
314 314 316 307 308 303 299 290 293 322 315 311 292 292 287 290 303 306 296 284 288 281 286 294 297 282 276 277 280 278 280 284 288 288 284 283 281 283 281 279 275 272 273 269 263 255 258 261 265